| time (UTC) | temp F | wind direction | speed knots | gust knots | rain 1hr in | rain 24hr in | rain mn in | humidity % | barometer mb |
| 20260510063603 | 55 | 30 | 8.7 | 20.0 | 0.00 | 0.00 | 0.00 | 79 | 1012.8 |
| 20260510062724 | 55 | 36 | 7.8 | 20.0 | 0.00 | 0.00 | 0.00 | 80 | 1012.8 |
| 20260510061803 | 54 | 34 | 9.6 | 19.1 | 0.00 | 0.00 | 0.00 | 81 | 1012.8 |
| 20260510060923 | 54 | 32 | 8.7 | 19.1 | 0.00 | 0.00 | 0.00 | 83 | 1012.9 |
| 20260510060002 | 53 | 30 | 7.0 | 18.2 | 0.00 | 0.00 | 0.00 | 85 | 1013.0 |
| 20260510055402 | 53 | 30 | 7.0 | 18.2 | 0.00 | 0.00 | 0.00 | 85 | 1012.8 |
| 20260510054502 | 52 | 33 | 7.0 | 16.5 | 0.00 | 0.00 | 0.00 | 85 | 1012.9 |
| 20260510053602 | 52 | 26 | 7.0 | 15.6 | 0.00 | 0.00 | 0.00 | 86 | 1012.9 |
| 20260510052702 | 52 | 21 | 7.0 | 15.6 | 0.00 | 0.00 | 0.00 | 86 | 1013.0 |
| 20260510051802 | 52 | 22 | 6.1 | 13.9 | 0.00 | 0.00 | 0.00 | 87 | 1012.9 |
| 20260510050902 | 51 | 23 | 6.1 | 15.6 | 0.00 | 0.00 | 0.00 | 87 | 1012.9 |
| 20260510050002 | 51 | 27 | 6.1 | 12.2 | 0.00 | 0.00 | 0.00 | 87 | 1012.9 |
| 20260510045402 | 51 | 17 | 6.1 | 13.0 | 0.00 | 0.00 | 0.00 | 86 | 1012.9 |
| 20260510044502 | 51 | 19 | 5.2 | 10.4 | 0.00 | 0.00 | 0.00 | 86 | 1012.9 |
| 20260510043603 | 51 | 16 | 5.2 | 9.6 | 0.00 | 0.00 | 0.00 | 85 | 1012.9 |
| 20260510042723 | 51 | 26 | 5.2 | 12.2 | 0.00 | 0.00 | 0.00 | 85 | 1013.0 |
| 20260510041803 | 51 | 29 | 5.2 | 12.2 | 0.00 | 0.00 | 0.00 | 83 | 1013.0 |
| 20260510040924 | 51 | 21 | 5.2 | 12.2 | 0.00 | 0.00 | 0.00 | 83 | 1013.0 |
| 20260510040002 | 51 | 27 | 5.2 | 12.2 | 0.00 | 0.00 | 0.00 | 83 | 1013.0 |
| 20260510035402 | 51 | 30 | 5.2 | 10.4 | 0.00 | 0.00 | 0.00 | 83 | 1013.0 |
| 20260510034502 | 51 | 26 | 5.2 | 10.4 | 0.00 | 0.00 | 0.00 | 82 | 1013.1 |
| 20260510033602 | 51 | 25 | 5.2 | 11.3 | 0.00 | 0.00 | 0.00 | 82 | 1013.1 |
| 20260510032702 | 51 | 29 | 5.2 | 10.4 | 0.00 | 0.00 | 0.00 | 82 | 1013.2 |
| 20260510031802 | 52 | 32 | 5.2 | 9.6 | 0.00 | 0.00 | 0.00 | 81 | 1013.1 |
| 20260510030902 | 52 | 40 | 5.2 | 10.4 | 0.00 | 0.00 | 0.00 | 80 | 1013.2 |
| 20260510030002 | 52 | 41 | 6.1 | 12.2 | 0.00 | 0.00 | 0.00 | 80 | 1013.2 |
| 20260510025403 | 52 | 37 | 6.1 | 12.2 | 0.00 | 0.00 | 0.00 | 80 | 1013.2 |
| 20260510024502 | 52 | 36 | 6.1 | 15.6 | 0.00 | 0.00 | 0.00 | 79 | 1013.2 |
| 20260510023602 | 52 | 32 | 6.1 | 11.3 | 0.00 | 0.00 | 0.00 | 79 | 1013.1 |
| 20260510022702 | 52 | 33 | 5.2 | 10.4 | 0.00 | 0.00 | 0.00 | 79 | 1013.0 |
| 20260510021823 | 52 | 31 | 5.2 | 13.9 | 0.00 | 0.00 | 0.00 | 78 | 1013.1 |
| 20260510020902 | 52 | 37 | 6.1 | 13.9 | 0.00 | 0.00 | 0.00 | 79 | 1013.2 |
| 20260510020024 | 52 | 38 | 6.1 | 9.6 | 0.00 | 0.00 | 0.00 | 78 | 1013.2 |
| 20260510015402 | 52 | 37 | 6.1 | 11.3 | 0.00 | 0.00 | 0.00 | 78 | 1013.2 |
| 20260510014523 | 52 | 36 | 5.2 | 10.4 | 0.00 | 0.00 | 0.00 | 77 | 1013.3 |
| 20260510013603 | 52 | 37 | 5.2 | 11.3 | 0.00 | 0.00 | 0.00 | 77 | 1013.4 |
| 20260510012703 | 52 | 36 | 6.1 | 10.4 | 0.00 | 0.00 | 0.00 | 76 | 1013.4 |
| 20260510011802 | 52 | 38 | 5.2 | 10.4 | 0.00 | 0.00 | 0.00 | 76 | 1013.5 |
| 20260510010902 | 52 | 36 | 5.2 | 10.4 | 0.00 | 0.00 | 0.00 | 75 | 1013.6 |
| 20260510010023 | 52 | 33 | 5.2 | 10.4 | 0.00 | 0.00 | 0.00 | 75 | 1013.6 |
| 20260510005402 | 52 | 36 | 5.2 | 11.3 | 0.00 | 0.00 | 0.00 | 75 | 1013.7 |
| 20260510004502 | 52 | 37 | 4.3 | 11.3 | 0.00 | 0.00 | 0.00 | 74 | 1014.0 |
| 20260510003623 | 52 | 32 | 5.2 | 11.3 | 0.00 | 0.00 | 0.00 | 74 | 1014.1 |
| 20260510002702 | 52 | 37 | 4.3 | 8.7 | 0.00 | 0.00 | 0.00 | 74 | 1014.2 |
| 20260510001802 | 52 | 37 | 4.3 | 8.7 | 0.00 | 0.00 | 0.00 | 74 | 1014.3 |
| 20260510000923 | 52 | 40 | 4.3 | 8.7 | 0.00 | 0.00 | 0.00 | 74 | 1014.4 |
| 20260510000003 | 52 | 34 | 4.3 | 7.8 | 0.00 | 0.00 | 0.00 | 74 | 1014.4 |
| 20260509235423 | 52 | 32 | 4.3 | 7.8 | 0.00 | 0.00 | 0.00 | 74 | 1014.3 |
| 20260509234502 | 53 | 31 | 4.3 | 10.4 | 0.00 | 0.00 | 0.00 | 73 | 1014.3 |
| 20260509233602 | 53 | 39 | 5.2 | 9.6 | 0.00 | 0.00 | 0.00 | 73 | 1014.3 |
| 20260509232702 | 53 | 38 | 5.2 | 8.7 | 0.00 | 0.00 | 0.00 | 72 | 1014.4 |
| 20260509231802 | 54 | 40 | 5.2 | 11.3 | 0.00 | 0.00 | 0.00 | 72 | 1014.6 |
| 20260509230903 | 54 | 39 | 5.2 | 10.4 | 0.00 | 0.00 | 0.00 | 71 | 1014.7 |
| 20260509230002 | 54 | 31 | 4.3 | 10.4 | 0.00 | 0.00 | 0.00 | 72 | 1014.8 |
| 20260509225402 | 54 | 28 | 4.3 | 10.4 | 0.00 | 0.00 | 0.00 | 72 | 1014.7 |
| 20260509224502 | 54 | 28 | 4.3 | 9.6 | 0.00 | 0.00 | 0.00 | 72 | 1014.7 |
| 20260509223602 | 54 | 31 | 4.3 | 7.8 | 0.00 | 0.00 | 0.00 | 72 | 1014.6 |
| 20260509222723 | 54 | 34 | 4.3 | 8.7 | 0.00 | 0.00 | 0.00 | 72 | 1014.6 |
| 20260509221802 | 55 | 26 | 4.3 | 11.3 | 0.00 | 0.00 | 0.00 | 72 | 1014.6 |
| 20260509220902 | 55 | 29 | 4.3 | 8.7 | 0.00 | 0.00 | 0.00 | 72 | 1014.5 |
| 20260509220024 | 55 | 23 | 4.3 | 9.6 | 0.00 | 0.00 | 0.00 | 72 | 1014.5 |
| 20260509215403 | 55 | 24 | 4.3 | 9.6 | 0.00 | 0.00 | 0.00 | 72 | 1014.6 |
| 20260509214502 | 55 | 16 | 4.3 | 8.7 | 0.00 | 0.00 | 0.00 | 73 | 1014.5 |
| 20260509213602 | 55 | 33 | 3.5 | 7.8 | 0.00 | 0.00 | 0.00 | 73 | 1014.5 |
| 20260509212702 | 55 | 30 | 3.5 | 7.8 | 0.00 | 0.00 | 0.00 | 73 | 1014.6 |
| 20260509211802 | 55 | 32 | 4.3 | 7.8 | 0.00 | 0.00 | 0.00 | 73 | 1014.7 |
| 20260509210923 | 56 | 27 | 3.5 | 8.7 | 0.00 | 0.00 | 0.00 | 73 | 1014.6 |
| 20260509210002 | 56 | 30 | 3.5 | 7.8 | 0.00 | 0.00 | 0.00 | 73 | 1014.6 |
| 20260509205402 | 56 | 21 | 3.5 | 7.8 | 0.00 | 0.00 | 0.00 | 72 | 1014.6 |
| 20260509204502 | 57 | 22 | 3.5 | 8.7 | 0.00 | 0.00 | 0.00 | 72 | 1014.7 |
| 20260509203603 | 57 | 20 | 3.5 | 8.7 | 0.00 | 0.00 | 0.00 | 71 | 1014.5 |
| 20260509202724 | 58 | 15 | 4.3 | 9.6 | 0.00 | 0.00 | 0.00 | 70 | 1014.5 |
| 20260509201802 | 58 | 10 | 6.1 | 10.4 | 0.00 | 0.00 | 0.00 | 70 | 1014.4 |
| 20260509200902 | 58 | 7 | 6.1 | 10.4 | 0.00 | 0.00 | 0.00 | 69 | 1014.3 |
| 20260509200023 | 59 | 7 | 6.1 | 11.3 | 0.00 | 0.00 | 0.00 | 69 | 1014.3 |
| 20260509195403 | 59 | 5 | 6.1 | 11.3 | 0.00 | 0.00 | 0.00 | 68 | 1014.2 |
| 20260509194502 | 60 | 9 | 6.1 | 11.3 | 0.00 | 0.00 | 0.00 | 68 | 1014.1 |
| 20260509193603 | 60 | 9 | 6.1 | 10.4 | 0.00 | 0.00 | 0.00 | 68 | 1014.0 |
| 20260509192702 | 61 | 11 | 6.1 | 9.6 | 0.00 | 0.00 | 0.00 | 67 | 1013.8 |
| 20260509191802 | 61 | 12 | 6.1 | 11.3 | 0.00 | 0.00 | 0.00 | 67 | 1013.8 |
| 20260509190923 | 62 | 10 | 7.0 | 11.3 | 0.00 | 0.00 | 0.00 | 65 | 1013.7 |
| 20260509190002 | 62 | 8 | 7.0 | 15.6 | 0.00 | 0.00 | 0.00 | 65 | 1013.7 |
| 20260509185402 | 63 | 9 | 7.0 | 15.6 | 0.00 | 0.00 | 0.00 | 64 | 1013.7 |
| 20260509184523 | 64 | 11 | 7.0 | 13.9 | 0.00 | 0.00 | 0.00 | 64 | 1013.6 |
| 20260509183602 | 64 | 10 | 7.8 | 16.5 | 0.00 | 0.00 | 0.00 | 63 | 1013.6 |
| 20260509182704 | 65 | 6 | 7.8 | 13.9 | 0.00 | 0.00 | 0.00 | 62 | 1013.6 |
| 20260509181802 | 66 | 6 | 7.0 | 13.0 | 0.00 | 0.00 | 0.00 | 61 | 1013.6 |
| 20260509180902 | 67 | 7 | 7.0 | 13.0 | 0.00 | 0.00 | 0.00 | 61 | 1013.6 |
| 20260509180002 | 68 | 8 | 7.8 | 16.5 | 0.00 | 0.00 | 0.00 | 59 | 1013.5 |
| 20260509175402 | 68 | 9 | 6.1 | 11.3 | 0.00 | 0.00 | 0.00 | 60 | 1013.6 |
| 20260509174502 | 68 | 34 | 3.5 | 8.7 | 0.00 | 0.00 | 0.00 | 57 | 1013.6 |
| 20260509173623 | 69 | 45 | 5.2 | 11.3 | 0.00 | 0.00 | 0.00 | 56 | 1013.5 |
| 20260509172703 | 69 | 46 | 4.3 | 7.8 | 0.00 | 0.00 | 0.00 | 55 | 1013.4 |
| 20260509171803 | 70 | 43 | 5.2 | 8.7 | 0.00 | 0.00 | 0.00 | 53 | 1013.3 |
| 20260509170902 | 70 | 46 | 5.2 | 7.8 | 0.00 | 0.00 | 0.00 | 56 | 1013.4 |
| 20260509170002 | 70 | 55 | 4.3 | 7.8 | 0.00 | 0.00 | 0.00 | 56 | 1013.4 |
| 20260509165423 | 70 | 54 | 4.3 | 7.8 | 0.00 | 0.00 | 0.00 | 54 | 1013.4 |
| 20260509164503 | 71 | 44 | 4.3 | 7.8 | 0.00 | 0.00 | 0.00 | 54 | 1013.3 |
| 20260509163603 | 71 | 37 | 5.2 | 8.7 | 0.00 | 0.00 | 0.00 | 54 | 1013.4 |
| 20260509162702 | 71 | 41 | 4.3 | 8.7 | 0.00 | 0.00 | 0.00 | 53 | 1013.4 |
| 20260509161802 | 71 | 33 | 4.3 | 9.6 | 0.00 | 0.00 | 0.00 | 54 | 1013.4 |
| 20260509160902 | 71 | 55 | 4.3 | 7.8 | 0.00 | 0.00 | 0.00 | 55 | 1013.4 |
| 20260509160002 | 71 | 60 | 4.3 | 8.7 | 0.00 | 0.00 | 0.00 | 55 | 1013.6 |
| 20260509155402 | 71 | 59 | 4.3 | 9.6 | 0.00 | 0.00 | 0.00 | 54 | 1013.5 |
| 20260509154502 | 71 | 53 | 4.3 | 11.3 | 0.00 | 0.00 | 0.00 | 55 | 1013.6 |
| 20260509153602 | 71 | 64 | 6.1 | 11.3 | 0.00 | 0.00 | 0.00 | 52 | 1013.7 |
| 20260509152702 | 72 | 53 | 7.0 | 13.0 | 0.00 | 0.00 | 0.00 | 55 | 1013.8 |
| 20260509151802 | 72 | 40 | 4.3 | 10.4 | 0.00 | 0.00 | 0.00 | 53 | 1013.8 |
| 20260509150923 | 71 | 66 | 5.2 | 8.7 | 0.00 | 0.00 | 0.00 | 53 | 1013.9 |
| 20260509150002 | 71 | 63 | 4.3 | 10.4 | 0.00 | 0.00 | 0.00 | 55 | 1013.8 |
| 20260509145402 | 71 | 75 | 5.2 | 10.4 | 0.00 | 0.00 | 0.00 | 57 | 1013.8 |
| 20260509144502 | 71 | 69 | 6.1 | 11.3 | 0.00 | 0.00 | 0.00 | 57 | 1013.9 |
| 20260509143602 | 70 | 69 | 6.1 | 13.9 | 0.00 | 0.00 | 0.00 | 56 | 1013.9 |
| 20260509142703 | 70 | 72 | 7.0 | 12.2 | 0.00 | 0.00 | 0.00 | 55 | 1014.0 |
| 20260509141802 | 70 | 74 | 5.2 | 10.4 | 0.00 | 0.00 | 0.00 | 58 | 1013.9 |
| 20260509140902 | 70 | 73 | 6.1 | 9.6 | 0.00 | 0.00 | 0.00 | 55 | 1014.1 |
| 20260509140002 | 70 | 65 | 5.2 | 10.4 | 0.00 | 0.00 | 0.00 | 57 | 1014.0 |
| 20260509135402 | 69 | 65 | 6.1 | 11.3 | 0.00 | 0.00 | 0.00 | 59 | 1014.0 |
| 20260509134502 | 68 | 61 | 4.3 | 11.3 | 0.00 | 0.00 | 0.00 | 58 | 1014.2 |
| 20260509133602 | 68 | 74 | 5.2 | 8.7 | 0.00 | 0.00 | 0.00 | 57 | 1014.2 |
| 20260509132702 | 70 | 68 | 6.1 | 9.6 | 0.00 | 0.00 | 0.00 | 56 | 1014.2 |
| 20260509131802 | 69 | 59 | 6.1 | 10.4 | 0.00 | 0.00 | 0.00 | 61 | 1014.3 |
| 20260509130924 | 68 | 57 | 6.1 | 10.4 | 0.00 | 0.00 | 0.00 | 57 | 1014.3 |
| 20260509130002 | 68 | 59 | 5.2 | 8.7 | 0.00 | 0.00 | 0.00 | 57 | 1014.4 |
| 20260509125423 | 69 | 63 | 6.1 | 8.7 | 0.00 | 0.00 | 0.00 | 57 | 1014.4 |
| 20260509124502 | 68 | 81 | 6.1 | 12.2 | 0.00 | 0.00 | 0.00 | 58 | 1014.5 |
| 20260509123603 | 69 | 69 | 6.1 | 10.4 | 0.00 | 0.00 | 0.00 | 58 | 1014.6 |
| 20260509122702 | 69 | 71 | 6.1 | 12.2 | 0.00 | 0.00 | 0.00 | 57 | 1014.8 |
| 20260509121803 | 69 | 84 | 5.2 | 8.7 | 0.00 | 0.00 | 0.00 | 60 | 1014.6 |
| 20260509120902 | 70 | 87 | 7.0 | 13.0 | 0.00 | 0.00 | 0.00 | 56 | 1014.7 |
| 20260509120002 | 70 | 94 | 6.1 | 10.4 | 0.00 | 0.00 | 0.00 | 57 | 1014.7 |
| 20260509115423 | 70 | 82 | 6.1 | 10.4 | 0.00 | 0.00 | 0.00 | 58 | 1014.8 |
| 20260509114503 | 70 | 69 | 6.1 | 11.3 | 0.00 | 0.00 | 0.00 | 56 | 1014.9 |
| 20260509113602 | 69 | 67 | 7.0 | 12.2 | 0.00 | 0.00 | 0.00 | 60 | 1015.0 |
| 20260509112702 | 69 | 81 | 7.0 | 11.3 | 0.00 | 0.00 | 0.00 | 60 | 1015.1 |
| 20260509111802 | 68 | 53 | 7.0 | 13.0 | 0.00 | 0.00 | 0.00 | 60 | 1015.2 |
| 20260509110923 | 68 | 54 | 7.0 | 13.0 | 0.00 | 0.00 | 0.00 | 60 | 1015.2 |
| 20260509110002 | 68 | 60 | 7.0 | 10.4 | 0.00 | 0.00 | 0.00 | 63 | 1015.3 |
| 20260509105402 | 68 | 58 | 7.0 | 11.3 | 0.00 | 0.00 | 0.00 | 61 | 1015.3 |
| 20260509104504 | 68 | 65 | 7.0 | 12.2 | 0.00 | 0.00 | 0.00 | 63 | 1015.5 |
| 20260509103603 | 68 | 54 | 7.8 | 13.0 | 0.00 | 0.00 | 0.00 | 63 | 1015.6 |
| 20260509102723 | 68 | 47 | 7.0 | 11.3 | 0.00 | 0.00 | 0.00 | 63 | 1015.7 |
| 20260509101803 | 68 | 58 | 6.1 | 11.3 | 0.00 | 0.00 | 0.00 | 64 | 1015.7 |
| 20260509100902 | 68 | 64 | 6.1 | 11.3 | 0.00 | 0.00 | 0.00 | 62 | 1015.8 |
| 20260509100002 | 67 | 47 | 6.1 | 9.6 | 0.00 | 0.00 | 0.00 | 66 | 1015.7 |
| 20260509095402 | 67 | 53 | 6.1 | 12.2 | 0.00 | 0.00 | 0.00 | 65 | 1015.7 |
| 20260509094502 | 67 | 61 | 6.1 | 10.4 | 0.00 | 0.00 | 0.00 | 66 | 1015.7 |
| 20260509093602 | 67 | 59 | 6.1 | 10.4 | 0.00 | 0.00 | 0.00 | 67 | 1015.8 |
| 20260509092702 | 66 | 50 | 5.2 | 10.4 | 0.00 | 0.00 | 0.00 | 68 | 1015.6 |
| 20260509091803 | 66 | 51 | 5.2 | 9.6 | 0.00 | 0.00 | 0.00 | 67 | 1015.9 |
| 20260509090902 | 66 | 56 | 5.2 | 8.7 | 0.00 | 0.00 | 0.00 | 66 | 1015.8 |
| 20260509090003 | 65 | 58 | 4.3 | 8.7 | 0.00 | 0.00 | 0.00 | 69 | 1015.8 |
| 20260509085402 | 65 | 54 | 4.3 | 8.7 | 0.00 | 0.00 | 0.00 | 70 | 1015.7 |
| 20260509084502 | 65 | 64 | 5.2 | 9.6 | 0.00 | 0.00 | 0.00 | 69 | 1015.8 |
| 20260509083602 | 64 | 59 | 5.2 | 9.6 | 0.00 | 0.00 | 0.00 | 69 | 1015.9 |
| 20260509082702 | 64 | 61 | 5.2 | 8.7 | 0.00 | 0.00 | 0.00 | 70 | 1015.8 |
| 20260509081802 | 63 | 59 | 5.2 | 7.8 | 0.00 | 0.00 | 0.00 | 71 | 1015.8 |
| 20260509080902 | 62 | 48 | 5.2 | 8.7 | 0.00 | 0.00 | 0.00 | 72 | 1015.9 |
| 20260509080023 | 62 | 57 | 5.2 | 8.7 | 0.00 | 0.00 | 0.00 | 72 | 1015.9 |
| 20260509075424 | 61 | 64 | 5.2 | 8.7 | 0.00 | 0.00 | 0.00 | 72 | 1016.0 |
| 20260509074502 | 61 | 67 | 4.3 | 8.7 | 0.00 | 0.00 | 0.00 | 73 | 1015.9 |
| 20260509073603 | 60 | 66 | 4.3 | 8.7 | 0.00 | 0.00 | 0.00 | 73 | 1015.9 |
| 20260509072704 | 60 | 64 | 4.3 | 8.7 | 0.00 | 0.00 | 0.00 | 73 | 1015.9 |
| 20260509071823 | 59 | 68 | 4.3 | 7.8 | 0.00 | 0.00 | 0.00 | 75 | 1015.9 |
| 20260509070902 | 59 | 63 | 4.3 | 7.8 | 0.00 | 0.00 | 0.00 | 76 | 1016.0 |
| 20260509070003 | 58 | 63 | 4.3 | 7.8 | 0.00 | 0.00 | 0.00 | 78 | 1016.0 |
| 20260509065403 | 57 | 74 | 5.2 | 7.8 | 0.00 | 0.00 | 0.00 | 79 | 1015.9 |
| 20260509064504 | 56 | 76 | 4.3 | 7.8 | 0.00 | 0.00 | 0.00 | 83 | 1016.0 |